DW4159 Weather Reports


Display with metric or nautical units.
time (UTC)temp
F
wind
direction
speed
MPH
gust
MPH
rain 1hr
in
rain 24hr
in
rain mn
in
humidity
%
barometer
mb
20260904131757 85 217 3.0 5.0 0.00 0.00 0.00 82 1014.2
20260904131256 85 116 2.0 5.0 0.00 0.00 0.00 83 1014.1
20260904130754 85 162 2.0 4.0 0.00 0.00 0.00 84 1014.0
20260904130304 84 261 2.0 4.0 0.00 0.00 0.00 85 1014.0
20260904125751 84 252 2.0 4.0 0.00 0.00 0.00 85 1014.0
20260904125252 84 224 2.0 3.0 0.00 0.00 0.00 85 1014.0
20260904124753 84 162 1.0 3.0 0.00 0.00 0.00 85 1014.0
20260904124520 83 153 1.0 2.0 0.00 0.00 0.00 86 1013.9
20260904124021 83 144 1.0 2.0 0.00 0.00 0.00 86 1013.9
20260904123243 83 146 1.0 3.0 0.00 0.00 0.00 86 1013.9
20260904122726 83 151 1.0 3.0 0.00 0.00 0.00 87 1013.9
20260904122217 83 132 0.0 2.0 0.00 0.00 0.00 87 1013.9
20260904121711 82 141 0.0 1.0 0.00 0.00 0.00 88 1013.9
20260904121213 82 129 0.0 1.0 0.00 0.00 0.00 88 1013.8
20260904120703 81 126 0.0 1.0 0.00 0.00 0.00 88 1013.7
20260904120151 81 120 0.0 1.0 0.00 0.00 0.00 89 1013.7
20260904115652 80 125 0.0 1.0 0.00 0.00 0.00 90 1013.6
20260904115353 80 126 0.0 2.0 0.00 0.00 0.00 91 1013.5
20260904114620 80 129 0.0 2.0 0.00 0.00 0.00 91 1013.5
20260904114121 79 125 0.0 1.0 0.00 0.00 0.00 91 1013.4
20260904113615 78 125 0.0 1.0 0.00 0.00 0.00 92 1013.4
20260904113051 78 125 0.0 1.0 0.00 0.00 0.00 92 1013.2
20260904112552 78 116 0.0 0.0 0.00 0.00 0.00 92 1013.3
20260904112305 78 115 0.0 0.0 0.00 0.00 0.00 92 1013.3
20260904111529 78 115 0.0 0.0 0.00 0.00 0.00 92 1013.3
20260904111019 78 116 0.0 0.0 0.00 0.00 0.00 92 1013.3
20260904110505 78 115 0.0 0.0 0.00 0.00 0.00 92 1013.2
20260904110234 78 116 0.0 0.0 0.00 0.00 0.00 92 1013.2
20260904105423 78 116 0.0 0.0 0.00 0.00 0.00 92 1013.1
20260904104920 78 115 0.0 0.0 0.00 0.00 0.00 93 1013.1
20260904104421 78 115 0.0 0.0 0.00 0.00 0.00 93 1013.0
20260904103921 78 115 0.0 0.0 0.00 0.00 0.00 93 1013.0
20260904103420 78 115 0.0 0.0 0.00 0.00 0.00 93 1013.0
20260904102919 78 115 0.0 0.0 0.00 0.00 0.00 93 1012.9
20260904102418 78 115 0.0 0.0 0.00 0.00 0.00 93 1012.8
20260904101917 78 115 0.0 0.0 0.00 0.00 0.00 92 1012.7
20260904101648 78 115 0.0 0.0 0.00 0.00 0.00 92 1012.7
20260904100917 78 115 0.0 0.0 0.00 0.00 0.00 92 1012.7
20260904100402 78 115 0.0 1.0 0.00 0.00 0.00 92 1012.7
20260904095859 78 115 0.0 1.0 0.00 0.00 0.00 92 1012.7
20260904095630 78 117 0.0 1.0 0.00 0.00 0.00 92 1012.5
20260904094848 78 119 0.0 0.0 0.00 0.00 0.00 92 1012.5
20260904094348 79 119 0.0 1.0 0.00 0.00 0.00 92 1012.4
20260904094110 78 119 0.0 1.0 0.00 0.00 0.00 92 1012.4
20260904093329 78 119 0.0 1.0 0.00 0.00 0.00 92 1012.4
20260904092821 79 119 0.0 1.0 0.00 0.00 0.00 92 1012.4
20260904092322 78 119 0.0 1.0 0.00 0.00 0.00 92 1012.3
20260904091816 78 119 0.0 1.0 0.00 0.00 0.00 92 1012.3
20260904091546 78 119 0.0 1.0 0.00 0.00 0.00 92 1012.2
20260904090811 78 119 0.0 1.0 0.00 0.00 0.00 91 1012.1
20260904090300 79 119 0.0 1.0 0.00 0.00 0.00 91 1012.2
20260904085736 79 119 0.0 0.0 0.00 0.00 0.00 91 1012.1
20260904085220 79 119 0.0 0.0 0.00 0.00 0.00 91 1012.2
20260904084712 79 119 0.0 0.0 0.00 0.00 0.00 91 1012.2
20260904084154 79 119 0.0 0.0 0.00 0.00 0.00 91 1012.3
20260904083628 79 119 0.0 0.0 0.00 0.00 0.00 91 1012.1
20260904083119 79 119 0.0 1.0 0.00 0.00 0.00 91 1012.2
20260904082545 79 119 0.0 1.0 0.00 0.00 0.00 91 1012.1
20260904082041 79 119 0.0 1.0 0.00 0.00 0.00 91 1012.1
20260904081532 79 120 0.0 1.0 0.00 0.00 0.00 91 1012.2
20260904081023 79 127 0.0 1.0 0.00 0.00 0.00 91 1012.2
20260904080521 79 128 0.0 1.0 0.00 0.00 0.00 91 1012.2
20260904080021 79 126 1.0 2.0 0.00 0.00 0.00 91 1012.1
20260904075517 79 127 1.0 2.0 0.00 0.00 0.00 91 1012.0
20260904075243 79 132 1.0 2.0 0.00 0.00 0.00 91 1012.0
20260904074512 79 130 0.0 2.0 0.00 0.00 0.00 91 1012.0
20260904074243 79 121 0.0 1.0 0.00 0.00 0.00 91 1011.9
20260904073514 79 125 0.0 1.0 0.00 0.00 0.00 91 1011.9
20260904073014 79 122 0.0 1.0 0.00 0.00 0.00 91 1011.9
20260904072500 79 125 1.0 2.0 0.00 0.00 0.00 91 1012.0
20260904072000 79 124 1.0 2.0 0.00 0.00 0.00 91 1012.0
20260904071942 79 119 0.0 1.0 0.00 0.00 0.00 91 1012.0
20260904071204 79 119 0.0 1.0 0.00 0.00 0.00 91 1012.0
20260904070425 79 119 0.0 2.0 0.00 0.00 0.00 91 1012.0
20260904070152 79 119 0.0 2.0 0.00 0.00 0.00 91 1012.1
20260904065420 79 120 0.0 0.0 0.00 0.00 0.00 91 1012.1
20260904064921 79 120 0.0 0.0 0.00 0.00 0.00 91 1012.1
20260904064416 79 120 0.0 0.0 0.00 0.00 0.00 91 1012.2
20260904063901 79 120 0.0 1.0 0.00 0.00 0.00 90 1012.3
20260904063341 79 120 0.0 1.0 0.00 0.00 0.00 90 1012.3
20260904062840 80 117 1.0 2.0 0.00 0.00 0.00 90 1012.2
20260904062836 80 119 0.0 1.0 0.00 0.00 0.00 90 1012.3
20260904061826 80 134 1.0 2.0 0.00 0.00 0.00 89 1012.3
20260904061324 80 132 1.0 2.0 0.00 0.00 0.00 89 1012.4
20260904060818 80 132 1.0 2.0 0.00 0.00 0.00 89 1012.5
20260904060314 80 131 1.0 2.0 0.00 0.00 0.00 89 1012.6
20260904055812 80 118 1.0 2.0 0.00 0.00 0.00 89 1012.6
20260904055312 80 119 1.0 3.0 0.00 0.00 0.00 89 1012.6
20260904054803 80 128 1.0 3.0 0.00 0.00 0.00 89 1012.8
20260904054232 80 118 1.0 2.0 0.00 0.00 0.00 89 1012.8
20260904053958 80 120 1.0 4.0 0.00 0.00 0.00 89 1012.8
20260904053226 80 114 2.0 4.0 0.00 0.00 0.00 89 1012.8
20260904052725 80 117 2.0 4.0 0.00 0.00 0.00 89 1012.7
20260904052218 80 117 2.0 4.0 0.00 0.00 0.00 89 1012.6
20260904051716 80 113 2.0 3.0 0.00 0.00 0.00 89 1012.5
20260904051215 80 105 2.0 4.0 0.00 0.00 0.00 89 1012.5
20260904050712 80 127 2.0 5.0 0.00 0.00 0.00 89 1012.6
20260904050442 80 120 3.0 5.0 0.00 0.00 0.00 89 1012.7
20260904045656 80 128 3.0 5.0 0.00 0.00 0.00 89 1012.7
20260904045156 80 111 3.0 5.0 0.00 0.00 0.00 89 1012.8
20260904044927 80 123 2.0 5.0 0.00 0.00 0.00 89 1012.9
20260904044149 80 132 2.0 5.0 0.00 0.00 0.00 90 1012.9
20260904043654 80 128 2.0 4.0 0.00 0.00 0.00 91 1013.0
20260904043650 80 98 2.0 3.0 0.00 0.00 0.00 90 1012.9
20260904042646 80 127 2.0 5.0 0.00 0.00 0.00 91 1012.9
20260904042142 80 112 2.0 5.0 0.00 0.00 0.00 91 1012.9
20260904041643 79 121 2.0 4.0 0.00 0.00 0.00 92 1013.0
20260904041138 79 117 1.0 4.0 0.00 0.00 0.00 92 1012.9
20260904040902 79 116 1.0 4.0 0.00 0.00 0.00 92 1012.9
20260904040402 79 113 1.0 3.0 0.00 0.00 0.00 93 1013.0
20260904035624 78 108 0.0 3.0 0.00 0.00 0.00 93 1013.0
20260904035356 78 91 0.0 1.0 0.00 0.00 0.00 93 1013.0
20260904034856 78 73 0.0 0.0 0.00 0.00 0.00 93 1013.1
20260904033624 78 69 0.0 0.0 0.00 0.00 0.00 93 1013.1
20260904033119 78 69 0.0 0.0 0.00 0.00 0.00 93 1013.2
20260904032542 78 69 0.0 0.0 0.00 0.00 0.00 92 1013.1
20260904032025 78 69 0.0 0.0 0.00 0.00 0.00 92 1013.0
20260904031524 78 69 0.0 0.0 0.00 0.00 0.00 92 1012.9
20260904031023 77 69 0.0 0.0 0.00 0.00 0.00 92 1013.0
20260904030510 77 69 0.0 0.0 0.00 0.00 0.00 92 1013.1
20260904025952 77 69 0.0 0.0 0.00 0.00 0.00 92 1013.1
20260904025449 77 69 0.0 0.0 0.00 0.00 0.00 92 1013.1
20260904024924 77 69 0.0 0.0 0.00 0.00 0.00 92 1013.0
20260904024421 77 69 0.0 0.0 0.00 0.00 0.00 92 1012.9
20260904024147 77 69 0.0 0.0 0.00 0.00 0.00 91 1013.0
20260904023417 77 69 0.0 0.0 0.00 0.00 0.00 91 1013.1
20260904022838 77 69 0.0 1.0 0.00 0.00 0.00 91 1013.2
20260904022335 77 64 0.0 1.0 0.00 0.00 0.00 91 1013.3
20260904021828 77 63 0.0 0.0 0.00 0.00 0.00 91 1013.3
20260904021329 77 64 0.0 0.0 0.00 0.00 0.00 91 1013.5
20260904020823 77 63 0.0 1.0 0.00 0.00 0.00 91 1013.5
20260904020322 77 63 0.0 1.0 0.00 0.00 0.00 91 1013.4
20260904015812 78 64 0.0 1.0 0.00 0.00 0.00 91 1013.4
20260904015301 78 63 0.0 0.0 0.00 0.00 0.00 91 1013.5
20260904014758 78 63 0.0 0.0 0.00 0.00 0.00 90 1013.5
20260904014237 78 63 0.0 0.0 0.00 0.00 0.00 90 1013.4
20260904013737 78 64 0.0 0.0 0.00 0.00 0.00 90 1013.4
20260904013223 78 63 0.0 0.0 0.00 0.00 0.00 90 1013.2
20260904012956 78 63 0.0 1.0 0.00 0.00 0.00 89 1013.2
20260904012223 78 63 0.0 1.0 0.00 0.00 0.00 89 1013.3
20260904011719 78 63 0.0 2.0 0.00 0.00 0.00 89 1013.3
20260904011206 78 50 0.0 2.0 0.00 0.00 0.00 89 1013.2
20260904010806 78 111 0.0 0.0 0.00 0.00 0.00 88 1013.2
20260904005649 78 113 0.0 1.0 0.00 0.00 0.00 88 1013.0
20260904005144 78 113 0.0 1.0 0.00 0.00 0.00 88 1012.9
20260904004623 78 113 0.0 3.0 0.00 0.00 0.00 88 1012.8
20260904004124 78 114 1.0 3.0 0.00 0.00 0.00 88 1012.6
20260904003624 78 117 1.0 3.0 0.00 0.00 0.00 88 1012.5
20260904003354 78 115 1.0 3.0 0.00 0.00 0.00 89 1012.5
20260904002623 78 115 0.0 2.0 0.00 0.00 0.00 89 1012.3
20260904002122 78 109 1.0 3.0 0.00 0.00 0.00 89 1012.3
20260904001607 78 116 1.0 3.0 0.00 0.00 0.00 89 1012.6
20260904001103 78 119 1.0 3.0 0.00 0.00 0.00 90 1012.7
20260904000603 78 97 0.0 2.0 0.00 0.00 0.00 90 1012.6
20260904000103 78 108 1.0 3.0 0.00 0.00 0.00 90 1012.5
20260903235824 78 97 2.0 5.0 0.00 0.00 0.00 90 1012.5
20260903235049 78 114 3.0 5.0 0.00 0.00 0.00 89 1012.5
20260903234545 77 109 2.0 5.0 0.00 0.00 0.00 89 1012.5
20260903234041 77 126 2.0 5.0 0.00 0.00 0.00 89 1012.4
20260903233537 77 108 2.0 4.0 0.00 0.00 0.00 89 1012.3
20260903233037 77 113 1.0 3.0 0.00 0.00 0.00 89 1012.3
20260903232539 77 113 1.0 2.0 0.00 0.00 0.00 90 1012.2
20260903232031 77 113 1.0 3.0 0.00 0.00 0.00 90 1012.1
20260903231531 77 150 1.0 3.0 0.00 0.00 0.00 90 1012.1
20260903231033 77 123 1.0 4.0 0.00 0.00 0.00 90 1012.2
20260903230515 77 116 1.0 4.0 0.00 0.00 0.00 90 1012.2
20260903230247 77 113 1.0 4.0 0.00 0.00 0.00 89 1012.2
20260903225513 77 101 1.0 3.0 0.00 0.00 0.00 89 1012.2
20260903225009 77 107 1.0 5.0 0.00 0.00 0.00 89 1012.2
20260903224518 77 113 3.0 6.0 0.00 0.00 0.00 88 1012.2
20260903224005 77 109 3.0 6.0 0.00 0.00 0.00 88 1012.4
20260903223516 78 115 2.0 5.0 0.00 0.00 0.00 87 1012.4
20260903223003 78 106 3.0 6.0 0.00 0.00 0.00 87 1012.4
20260903222455 78 120 3.0 6.0 0.00 0.00 0.00 87 1012.3
20260903222006 78 115 3.0 6.0 0.00 0.00 0.00 86 1012.3
20260903221448 78 118 3.0 5.0 0.00 0.00 0.00 85 1012.2
20260903220949 78 150 1.0 5.0 0.00 0.00 0.00 85 1012.1
20260903220447 78 101 1.0 2.0 0.00 0.00 0.00 87 1012.0
20260903220215 78 134 2.0 3.0 0.00 0.00 0.00 86 1012.0
20260903215445 78 134 2.0 4.0 0.00 0.00 0.00 85 1012.0
20260903214946 78 122 2.0 4.0 0.00 0.00 0.00 85 1012.0
20260903214715 78 155 2.0 4.0 0.00 0.00 0.00 86 1011.9
20260903213943 78 140 2.0 4.0 0.00 0.00 0.00 86 1011.9
20260903213443 78 177 2.0 3.0 0.00 0.00 0.00 86 1011.8
20260903212937 78 157 2.0 5.0 0.00 0.00 0.00 87 1011.8
20260903212437 78 155 3.0 6.0 0.00 0.00 0.00 86 1011.7
20260903211931 78 132 3.0 6.0 0.00 0.00 0.00 87 1011.8
20260903211430 78 129 2.0 5.0 0.00 0.00 0.00 86 1011.9
20260903210931 79 142 3.0 7.0 0.00 0.00 0.00 86 1011.9
20260903210701 79 180 6.0 12.0 0.00 0.00 0.00 85 1011.9
20260903205928 80 151 7.0 13.0 0.00 0.00 0.00 84 1011.8
20260903205424 80 129 9.0 13.0 0.00 0.00 0.00 83 1011.9
20260903204927 82 141 4.0 12.0 0.00 0.00 0.00 83 1011.1
20260903204923 81 219 7.0 13.0 0.00 0.00 0.00 81 1011.2
20260903203922 82 157 3.0 9.0 0.00 0.00 0.00 82 1011.1
20260903203418 83 179 7.0 11.0 0.00 0.00 0.00 81 1011.4
20260903202912 84 209 7.0 16.0 0.00 0.00 0.00 79 1011.5
20260903202408 86 250 5.0 16.0 0.00 0.00 0.00 78 1011.5
20260903201908 86 121 5.0 12.0 0.00 0.00 0.00 78 1011.3
20260903201408 86 115 5.0 12.0 0.00 0.00 0.00 78 1011.3
20260903201148 86 162 4.0 9.0 0.00 0.00 0.00 77 1011.4
20260903200404 86 109 5.0 11.0 0.00 0.00 0.00 76 1011.3
20260903195905 87 111 5.0 11.0 0.00 0.00 0.00 76 1011.4
20260903195403 87 116 5.0 11.0 0.00 0.00 0.00 77 1011.8
20260903194903 87 112 6.0 11.0 0.00 0.00 0.00 75 1011.8
20260903194400 87 118 5.0 11.0 0.00 0.00 0.00 75 1011.8
20260903193859 88 115 5.0 12.0 0.00 0.00 0.00 74 1011.4
20260903193629 89 121 3.0 12.0 0.00 0.00 0.00 73 1011.1
20260903192858 90 110 2.0 6.0 0.00 0.00 0.00 71 1011.0
20260903192359 90 82 2.0 7.0 0.00 0.00 0.00 71 1011.2
20260903192128 89 87 3.0 7.0 0.00 0.00 0.00 72 1011.5
20260903191356 89 104 4.0 10.0 0.00 0.00 0.00 71 1011.4
20260903190854 89 126 4.0 10.0 0.00 0.00 0.00 69 1011.5
20260903190354 90 118 4.0 10.0 0.00 0.00 0.00 69 1011.5
20260903185852 90 113 4.0 11.0 0.00 0.00 0.00 68 1011.7
20260903185353 91 110 4.0 11.0 0.00 0.00 0.00 68 1011.9
20260903185120 91 141 3.0 11.0 0.00 0.00 0.00 66 1012.0
20260903184350 91 72 3.0 6.0 0.00 0.00 0.00 66 1012.0
20260903183848 91 96 3.0 10.0 0.00 0.00 0.00 66 1012.0
20260903183618 91 86 4.0 10.0 0.00 0.00 0.00 67 1011.9
20260903182851 90 115 3.0 9.0 0.00 0.00 0.00 69 1011.8
20260903182338 90 83 3.0 10.0 0.00 0.00 0.00 72 1011.8
20260903181842 89 61 5.0 11.0 0.00 0.00 0.00 77 1011.8
20260903181838 89 79 4.0 11.0 0.00 0.00 0.00 75 1011.7
20260903180836 89 92 4.0 11.0 0.00 0.00 0.00 78 1011.9
20260903180335 89 119 6.0 15.0 0.00 0.00 0.00 76 1011.9
20260903175832 89 117 6.0 15.0 0.00 0.00 0.00 76 1012.0
20260903175332 91 123 3.0 13.0 0.00 0.00 0.00 73 1012.1
20260903174830 91 92 2.0 6.0 0.00 0.00 0.00 74 1012.2
20260903174327 89 98 3.0 8.0 0.00 0.00 0.00 75 1012.3
20260903173828 88 35 5.0 12.0 0.00 0.00 0.00 76 1012.3
20260903173329 88 130 4.0 12.0 0.00 0.00 0.00 76 1012.4
20260903172820 89 113 1.0 11.0 0.00 0.00 0.00 70 1012.4
20260903172320 89 225 1.0 4.0 0.00 0.00 0.00 65 1012.5
20260903171814 89 268 1.0 4.0 0.00 0.00 0.00 65 1012.6
20260903171544 89 277 0.0 2.0 0.00 0.00 0.00 65 1012.5
20260903170810 88 271 3.0 10.0 0.00 0.00 0.00 70 1012.5
20260903170259 87 172 6.0 13.0 0.00 0.00 0.00 73 1012.6
20260903165756 89 266 5.0 13.0 0.00 0.00 0.00 71 1012.8
20260903165308 89 272 3.0 6.0 0.00 0.00 0.00 71 1012.8
20260903164754 89 259 3.0 6.0 0.00 0.00 0.00 70 1012.7
20260903164254 90 271 3.0 6.0 0.00 0.00 0.00 69 1012.8
20260903164025 90 265 3.0 6.0 0.00 0.00 0.00 68 1012.8
20260903163522 90 151 3.0 9.0 0.00 0.00 0.00 67 1013.0
20260903162752 90 262 4.0 10.0 0.00 0.00 0.00 67 1013.1
20260903162251 91 122 3.0 10.0 0.00 0.00 0.00 68 1013.2
20260903161752 90 146 3.0 10.0 0.00 0.00 0.00 68 1013.2
20260903161248 90 275 2.0 10.0 0.00 0.00 0.00 66 1013.2
20260903160736 90 120 2.0 6.0 0.00 0.00 0.00 68 1013.2
20260903160223 90 233 3.0 7.0 0.00 0.00 0.00 70 1013.3
20260903155724 89 172 2.0 7.0 0.00 0.00 0.00 68 1013.3
20260903155224 89 240 2.0 6.0 0.00 0.00 0.00 71 1013.4
20260903154722 89 225 3.0 6.0 0.00 0.00 0.00 69 1013.3
20260903154220 89 275 4.0 9.0 0.00 0.00 0.00 72 1013.3
20260903153720 89 224 3.0 9.0 0.00 0.00 0.00 71 1013.4
20260903153219 88 242 2.0 7.0 0.00 0.00 0.00 70 1013.5
20260903152730 88 126 2.0 6.0 0.00 0.00 0.00 73 1013.4
20260903152215 88 234 2.0 9.0 0.00 0.00 0.00 74 1013.5
20260903151716 87 171 3.0 9.0 0.00 0.00 0.00 74 1013.6
20260903151215 87 194 3.0 9.0 0.00 0.00 0.00 75 1013.5
20260903150715 87 247 4.0 9.0 0.00 0.00 0.00 76 1013.5
20260903150216 87 217 4.0 9.0 0.00 0.00 0.00 76 1013.5
20260903145944 87 156 4.0 9.0 0.00 0.00 0.00 78 1013.4
20260903145212 87 149 3.0 10.0 0.00 0.00 0.00 79 1013.4
20260903144711 87 177 3.0 10.0 0.00 0.00 0.00 78 1013.4
20260903144212 86 155 3.0 9.0 0.00 0.00 0.00 79 1013.4
20260903143943 86 141 3.0 9.0 0.00 0.00 0.00 79 1013.5
20260903143211 86 132 2.0 6.0 0.00 0.00 0.00 79 1013.4
20260903142708 86 206 2.0 6.0 0.00 0.00 0.00 78 1013.4
20260903142207 86 132 2.0 5.0 0.00 0.00 0.00 79 1013.4
20260903141708 86 175 2.0 5.0 0.00 0.00 0.00 79 1013.3
20260903141208 85 155 2.0 5.0 0.00 0.00 0.00 80 1013.3
20260903140708 85 180 1.0 5.0 0.00 0.00 0.00 79 1013.3
20260903140207 86 133 0.0 2.0 0.00 0.00 0.00 79 1013.3
20260903135703 85 242 0.0 2.0 0.00 0.00 0.00 80 1013.3
20260903135159 85 123 0.0 1.0 0.00 0.00 0.00 80 1013.3
20260903134652 85 136 0.0 1.0 0.00 0.00 0.00 82 1013.3
20260903134141 83 139 0.0 1.0 0.00 0.00 0.00 83 1013.2
20260903133643 83 125 1.0 2.0 0.00 0.00 0.00 84 1013.2
20260903133137 82 122 0.0 2.0 0.00 0.00 0.00 84 1013.1
20260903132637 82 224 0.0 2.0 0.00 0.00 0.00 84 1013.1
20260903132135 82 208 0.0 2.0 0.00 0.00 0.00 83 1013.0